Location: Kaikalui
(16.5250°N, 81.1500°E)
Time: 14:37:24
(UTC+00:00)

Cosmos 1328 - Pass Details

Date: 14 April 2026
Orbit: 454 x 467 km, 82.5° (Epoch: 11 May)

Event Time Altitude Azimuth Distance (km) Brightness Sun altitude
Rises 13:49:14 0° 353° (N) 2,477 7.5 -14.5°
Reaches altitude 10° 13:51:18 10° 352° (N) 1,604 6.5 -15.0°
Maximum altitude 13:54:48 78° 266° (W) 475 3.5 -15.8°
Drops below altitude 10° 13:58:19 10° 180° (S) 1,609 6.0 -16.6°
Enters shadow 13:59:31 - 179° (S) 2,116 6.6 -16.9°
